Home   Weather   Philadelphia   Past weeks

Flag for USA Past Weather in Philadelphia, Pennsylvania, USA — Yesterday and Last 2 Weeks

52 °F

Passing clouds.

Feels Like: 47 °F
Forecast: 45 / 62 °F
Wind: 16 mph from West

Location: Philadelphia International Airport

Current Time: Oct 23, 2016 at 10:25:31 AM

Latest Report: Oct 23, 2016 at 9:54 AM

Visibility: 10 mi

Pressure: 29.94 "Hg

Humidity: 59%

Dew Point: 38 °F

Location of PhiladelphiaLocation

Past Weather in Philadelphia — Graph


Philadelphia Temperature Yesterday

Maximum temperature yesterday: 57 °F (at 12:54 AM)
Minimum temperature yesterday: 50 °F (at 7:54 AM)
Average temperature yesterday: 52 °F

High & Low Weather Summary for the Past Weeks

High86 °F (Oct 19, 2:54 PM)100% (Oct 16, 5:54 AM)30.48 "Hg (Oct 16, 5:54 AM)
Low45 °F (Oct 15, 6:54 AM)24% (Oct 10, 3:54 PM)29.47 "Hg (Oct 22, 5:54 AM)
Average62 °F68%30.08 "Hg
* Reported Oct 8 8:54 AM — Oct 23 8:54 AM, Philadelphia, Weather by CustomWeather, © 2016

Note: Actual official high and low records may vary slightly from our data, if they occured in-between our weather recording intervals... More about our weather records


Philadelphia Weather History for the Previous 24 Hours

Scroll right to see more
Time TempWeatherWind HumidityBarometerVisibility
8:54 AM
Sun, Oct 23
50 °FPassing clouds.18 mph61%29.93 "Hg10 mi
7:54 AM47 °FPassing clouds.18 mph69%29.90 "Hg10 mi
6:54 AM47 °FPassing clouds.16 mph61%29.88 "Hg10 mi
5:54 AM47 °FClear.15 mph59%29.87 "Hg10 mi
4:54 AM48 °FClear.10 mph52%29.86 "Hg10 mi
3:54 AM48 °FPassing clouds.15 mph56%29.85 "Hg10 mi
2:54 AM49 °FPassing clouds.18 mph59%29.83 "Hg10 mi
1:54 AM49 °FPassing clouds.18 mph59%29.81 "Hg10 mi
12:54 AM49 °FPassing clouds.16 mph59%29.80 "Hg10 mi
11:54 PM
Sat, Oct 22
50 °FPassing clouds.15 mph52%29.79 "Hg10 mi
10:54 PM50 °FPassing clouds.15 mph48%29.79 "Hg10 mi
9:54 PM50 °FClear.16 mph46%29.78 "Hg10 mi
8:54 PM50 °FPassing clouds.12 mph46%29.75 "Hg10 mi
7:54 PM51 °FPassing clouds.17 mph46%29.73 "Hg10 mi
6:54 PM52 °FPartly cloudy.14 mph45%29.70 "Hg10 mi
5:54 PM53 °FBroken clouds.16 mph43%29.67 "Hg10 mi
4:54 PM54 °FBroken clouds.24 mph43%29.65 "Hg10 mi
3:54 PM54 °FPartly sunny.28 mph45%29.63 "Hg10 mi
2:54 PM54 °FLight rain. Cloudy.21 mph55%29.62 "Hg10 mi
1:54 PM52 °FLight rain. Cloudy.20 mph61%29.61 "Hg10 mi
12:54 PM53 °FLight rain. Mostly cloudy.20 mph66%29.60 "Hg10 mi
11:54 AM53 °FMostly cloudy.14 mph72%29.59 "Hg10 mi
10:54 AM52 °FLight rain. Cloudy.17 mph69%29.57 "Hg10 mi
Weather by CustomWeather, © 2016

See weather overviewHow to use our weather pages